Wind_Speed
16 16 16 16 17 18 19 19 19 19 19 20 21 21 22 22 23 23 23 23 23 24 24 25 26 26 25 24 23 22 22 22 22 22 22 22 22 21
18 18 18 18 19 19 20 20 21 21 22 22 23 24 24 24 24 25 24 24 25 26 26 26 26 26 26 25 24 24 24 24 24 24 24 24 24 23
20 20 20 20 21 21 21 22 23 23 24 24 25 25 26 26 26 26 26 25 25 25 26 26 26 26 27 26 26 26 26 26 26 26 25 25 26 26
21 21 21 22 22 22 23 24 24 24 24 24 25 25 26 27 26 26 27 27 27 26 26 27 27 27 28 29 28 28 28 28 28 27 28 28 28 28
22 22 22 22 23 24 24 25 25 26 26 25 25 26 27 27 27 27 27 28 28 28 28 28 29 29 30 30 30 30 30 30 30 30 30 30 30 29
24 24 24 25 25 25 25 26 26 27 27 27 27 27 28 28 28 28 29 29 29 29 30 30 31 31 31 32 32 32 32 33 33 33 32 32 32 32
26 26 26 26 26 26 26 27 27 27 28 28 28 27 28 28 29 29 29 29 29 30 30 31 31 32 33 33 34 34 34 34 34 34 33 33 33 33
27 27 27 27 27 27 27 27 27 27 28 28 28 28 28 29 29 30 30 30 30 31 31 31 31 32 33 34 35 36 36 36 35 35 35 35 34 34
28 28 28 27 28 28 28 28 28 28 28 29 29 29 30 30 30 31 31 31 31 32 33 32 33 33 34 34 35 36 37 37 36 36 36 36 36 36
28 28 28 28 28 28 28 29 29 29 29 29 30 30 30 30 31 31 31 31 32 32 33 33 33 34 34 34 35 36 36 37 37 37 37 37 36 36
28 28 28 28 28 29 29 29 29 29 30 30 30 30 30 30 31 31 31 32 32 32 33 33 34 34 35 35 35 35 36 37 37 37 37 37 37 36
29 29 29 29 29 29 29 30 29 29 30 30 31 30 30 30 30 31 31 31 32 31 32 33 34 34 34 35 35 35 36 36 36 36 36 36 36 36
29 29 29 29 29 29 30 30 30 29 29 29 30 30 30 30 30 30 31 31 31 31 32 33 33 34 34 33 33 34 35 35 36 36 36 35 35 35
30 30 30 30 29 30 30 30 30 30 30 29 29 29 29 29 29 29 29 30 30 31 31 32 32 32 33 33 33 34 34 34 35 34 34 34 35 34
31 31 31 31 30 30 30 29 29 29 29 29 29 29 29 29 29 29 29 29 29 30 31 31 31 32 32 32 32 33 33 33 34 33 33 33 34 34
32 32 32 31 31 31 30 30 29 29 29 30 30 30 30 29 29 29 29 28 28 29 30 30 31 31 31 31 31 31 31 32 32 32 33 32 32 33
33 32 31 31 31 31 31 30 30 30 30 30 30 30 30 29 28 28 28 29 29 28 29 30 31 31 31 31 31 31 31 31 32 32 33 32 32 32
31 30 30 30 31 31 30 30 29 30 30 30 30 30 30 29 28 28 28 28 28 28 28 28 29 29 30 29 29 29 30 30 30 30 31 31 31 31
30 30 30 30 29 29 29 29 28 28 29 29 29 28 28 27 27 26 27 27 27 28 28 27 28 28 28 26 26 27 27 27 27 27 27 27 27 27
28 28 28 28 27 28 28 28 28 28 28 28 27 27 26 26 26 26 26 27 27 27 27 27 27 26 26 25 25 24 24 24 25 25 25 24 24 25
28 27 27 27 27 27 27 27 27 27 27 27 27 27 26 25 25 26 26 26 27 27 26 26 25 25 24 23 22 22 22 22 22 22 22 22 23 23
28 27 27 27 27 27 28 28 28 28 27 27 27 27 26 26 26 27 27 26 26 26 26 25 24 23 23 23 22 21 20 19 19 20 20 21 21 22
27 27 26 26 26 26 26 27 27 27 27 27 27 27 26 27 27 27 28 27 27 26 26 24 23 22 22 22 21 20 20 19 19 19 20 20 20 21
Wind_Direction
296 292 287 284 281 280 279 279 278 277 276 276 275 275 275 273 270 269 269 271 271 272 270 268 267 265 264 262 262 263 264 266 266 266 267 266 266 266
293 290 287 284 282 282 282 282 281 279 278 278 277 276 277 276 274 271 271 271 270 270 269 269 267 265 264 263 261 262 263 264 265 265 266 268 269 268
291 289 287 283 281 281 282 282 282 281 281 281 281 279 277 276 275 275 274 273 272 270 269 268 266 265 264 263 262 262 263 264 265 265 265 267 267 268
290 288 285 284 283 283 282 282 283 284 285 285 283 281 278 277 277 276 275 275 273 270 269 267 266 264 263 263 262 264 264 264 265 265 266 267 268 268
290 288 286 285 284 284 283 283 284 285 286 285 283 283 281 279 278 278 275 274 272 271 270 267 265 264 263 263 263 264 265 265 265 265 266 267 268 267
288 287 286 285 284 283 284 284 284 284 284 284 283 283 282 281 280 279 277 275 272 271 270 269 267 266 264 264 264 265 266 266 265 265 265 266 267 267
289 288 287 286 285 284 284 284 284 284 284 283 283 282 281 279 279 279 278 277 276 274 271 270 270 268 266 266 265 265 266 266 266 266 266 266 268 268
289 289 287 285 285 285 285 285 284 284 285 284 284 282 281 279 278 277 277 277 277 276 272 271 270 269 269 268 266 265 264 264 266 267 267 267 267 267
289 288 287 285 285 285 285 285 285 285 285 285 284 284 282 280 278 277 277 276 276 275 273 270 269 269 269 269 267 266 265 265 265 267 268 267 266 266
290 289 288 288 287 286 286 286 284 284 285 286 285 285 284 283 280 278 277 276 275 274 273 272 271 271 270 270 269 268 266 267 267 268 268 267 266 265
291 291 290 289 289 288 287 286 285 285 285 287 287 285 284 283 282 281 279 277 276 275 274 274 274 274 273 271 270 270 269 268 266 267 268 267 267 266
292 293 291 290 289 288 287 286 286 286 286 287 287 286 285 284 282 281 280 279 277 277 276 275 274 274 273 272 271 272 271 270 269 270 270 269 268 266
290 291 292 292 290 289 287 287 286 287 287 287 287 286 285 284 283 282 282 281 280 279 278 276 275 274 273 273 273 273 273 270 270 271 270 269 268 266
289 289 289 290 290 290 289 287 286 286 285 285 286 286 286 284 284 283 283 284 282 281 280 279 278 277 275 275 274 273 272 271 270 270 269 268 266 266
289 290 289 289 289 289 289 288 287 287 287 285 285 286 285 284 283 283 283 284 284 284 282 281 281 279 278 277 275 274 272 270 269 268 268 269 268 267
289 290 290 288 288 288 288 288 287 286 286 286 286 286 285 284 283 283 283 284 285 284 285 285 284 282 280 278 276 274 272 270 270 269 269 269 270 269
287 287 287 287 286 287 287 287 286 285 284 284 285 286 285 284 284 284 283 283 283 283 283 285 285 283 281 279 276 274 273 272 272 271 271 271 271 270
285 285 287 288 287 285 286 285 285 284 283 283 284 284 284 283 284 285 284 284 285 286 286 286 285 283 283 281 278 276 275 275 275 273 272 272 271 269
283 284 286 287 287 285 284 285 285 284 283 283 283 283 283 283 283 285 286 286 286 288 288 287 286 285 284 281 280 278 277 276 276 277 275 272 270 268
284 283 284 285 287 287 286 285 284 283 283 282 282 282 283 284 284 285 286 286 286 287 287 288 287 285 283 280 279 277 277 277 278 278 275 272 272 271
286 286 285 285 287 287 287 286 285 283 282 281 281 282 281 282 283 285 287 287 287 287 286 286 285 284 282 281 280 278 278 278 278 279 277 274 272 271
284 284 285 286 287 287 286 286 284 282 280 282 282 281 280 280 282 284 286 287 287 287 287 286 285 283 280 281 281 281 280 281 282 283 281 278 276 274
282 282 284 285 287 288 287 287 285 283 282 283 283 282 281 280 283 285 287 287 287 287 287 285 284 282 279 279 279 278 278 279 281 283 283 283 278 278
Height
5854 5852 5851 5850 5849 5848 5847 5846 5846 5845 5844 5843 5842 5841 5840 5839 5838 5837 5836 5836 5835 5835 5834 5834 5834 5834 5833 5834 5834 5834 5834 5834 5833 5833 5833 5833 5832 5832
5849 5847 5846 5844 5843 5842 5841 5840 5839 5838 5837 5836 5835 5834 5833 5832 5831 5830 5829 5829 5828 5827 5827 5827 5827 5827 5827 5827 5827 5827 5827 5827 5827 5827 5826 5826 5826 5825
5843 5842 5840 5838 5837 5836 5835 5834 5832 5831 5830 5830 5828 5826 5825 5824 5824 5823 5822 5821 5820 5820 5819 5819 5818 5819 5819 5819 5819 5819 5820 5820 5820 5820 5819 5819 5819 5819
5837 5835 5834 5832 5831 5829 5828 5827 5825 5824 5823 5822 5820 5819 5818 5816 5815 5815 5814 5813 5812 5812 5811 5811 5810 5810 5811 5811 5811 5811 5811 5812 5812 5812 5812 5812 5811 5811
5831 5829 5827 5826 5824 5822 5821 5820 5818 5817 5815 5814 5813 5811 5810 5808 5807 5806 5805 5805 5804 5803 5803 5802 5802 5802 5802 5802 5802 5802 5803 5803 5803 5803 5803 5803 5803 5802
5824 5822 5820 5818 5817 5815 5813 5812 5811 5809 5807 5806 5804 5803 5801 5800 5799 5798 5797 5796 5795 5795 5794 5793 5793 5793 5793 5793 5794 5793 5793 5794 5794 5794 5794 5794 5794 5793
5816 5814 5812 5810 5808 5807 5805 5804 5802 5801 5799 5797 5796 5794 5793 5791 5790 5789 5788 5787 5786 5786 5785 5784 5784 5784 5784 5783 5783 5784 5784 5784 5784 5784 5784 5784 5784 5784
5809 5806 5804 5802 5800 5798 5797 5795 5794 5792 5791 5789 5787 5786 5784 5783 5781 5780 5779 5779 5778 5777 5776 5775 5775 5774 5774 5774 5773 5773 5774 5774 5774 5774 5774 5774 5774 5774
5800 5798 5796 5794 5792 5790 5788 5787 5785 5783 5782 5780 5779 5777 5775 5774 5773 5771 5770 5769 5768 5767 5766 5765 5764 5764 5764 5763 5763 5763 5763 5763 5763 5763 5763 5763 5763 5763
5792 5789 5787 5785 5783 5782 5780 5778 5776 5775 5773 5771 5770 5768 5766 5764 5763 5762 5760 5759 5758 5757 5756 5756 5755 5754 5754 5753 5752 5752 5752 5752 5752 5752 5752 5752 5752 5752
5783 5781 5779 5777 5775 5773 5771 5770 5768 5766 5764 5762 5761 5759 5757 5755 5753 5751 5750 5749 5748 5747 5746 5746 5745 5744 5744 5743 5742 5742 5741 5741 5741 5741 5741 5741 5741 5741
5775 5773 5771 5768 5766 5764 5762 5761 5759 5757 5755 5753 5751 5749 5748 5745 5744 5742 5741 5740 5739 5738 5737 5736 5735 5734 5734 5733 5732 5731 5731 5730 5730 5730 5729 5729 5729 5729
5767 5765 5762 5760 5757 5755 5753 5752 5750 5748 5746 5744 5742 5741 5739 5737 5735 5733 5732 5731 5730 5729 5728 5726 5725 5724 5723 5723 5722 5721 5720 5720 5719 5719 5719 5718 5718 5718
5758 5756 5753 5751 5748 5746 5744 5742 5741 5739 5737 5735 5734 5732 5730 5728 5726 5725 5723 5721 5720 5719 5717 5716 5715 5714 5713 5712 5712 5711 5710 5709 5709 5709 5708 5708 5708 5708
5748 5746 5744 5742 5739 5737 5735 5733 5731 5730 5728 5727 5725 5723 5721 5719 5718 5716 5714 5713 5711 5709 5708 5706 5705 5704 5703 5702 5701 5700 5700 5699 5698 5698 5698 5698 5698 5698
5738 5736 5734 5732 5730 5728 5726 5724 5723 5721 5719 5718 5716 5714 5713 5711 5709 5707 5706 5704 5703 5701 5699 5697 5696 5694 5693 5692 5691 5690 5689 5689 5689 5688 5688 5688 5688 5687
5728 5726 5724 5723 5721 5719 5717 5715 5713 5712 5710 5709 5707 5706 5704 5702 5701 5699 5697 5696 5694 5693 5691 5689 5687 5685 5683 5682 5681 5680 5679 5679 5679 5678 5678 5678 5678 5678
5719 5717 5715 5713 5712 5710 5708 5706 5704 5703 5701 5699 5698 5696 5695 5693 5692 5690 5689 5687 5685 5684 5682 5680 5678 5676 5675 5673 5672 5671 5671 5670 5669 5669 5668 5668 5668 5668
5709 5708 5706 5704 5702 5700 5699 5697 5695 5693 5692 5690 5689 5687 5686 5685 5683 5682 5681 5679 5677 5675 5673 5671 5669 5668 5666 5665 5664 5663 5662 5661 5660 5660 5659 5658 5658 5658
5699 5698 5697 5695 5693 5692 5690 5688 5686 5684 5683 5682 5680 5679 5678 5676 5675 5674 5672 5670 5669 5667 5665 5663 5661 5660 5658 5657 5656 5655 5654 5653 5652 5652 5651 5651 5650 5650
5691 5690 5688 5686 5685 5683 5682 5680 5678 5676 5675 5673 5672 5671 5669 5668 5666 5665 5664 5662 5661 5659 5658 5656 5654 5652 5651 5649 5649 5648 5647 5646 5645 5644 5644 5644 5643 5643
5683 5682 5680 5679 5677 5675 5673 5672 5670 5668 5667 5665 5664 5662 5661 5660 5658 5657 5656 5654 5653 5651 5649 5648 5646 5644 5644 5643 5642 5641 5640 5640 5639 5638 5637 5637 5636 5635
5674 5673 5672 5671 5669 5668 5665 5663 5661 5660 5658 5657 5655 5654 5652 5651 5650 5649 5647 5646 5644 5643 5641 5640 5639 5638 5637 5636 5635 5634 5634 5633 5633 5631 5630 5629 5628 5628